Regional Weather Roundup
Issued by NWS

Home | Current Version | Previous Version | Graphics & Text | Print | Product List | Glossary On
Versions: 1 2 3 4 5 6 7 8 9 10 11 12 13 14 15 16 17 18 19 20 21 22 23 24 25 26 27 28
000
ASUS45 KCYS 100610
RWRWY

WYOMING REGIONAL WEATHER ROUNDUP
NATIONAL WEATHER SERVICE CHEYENNE WY
1100 PM MST FRI DEC 09 2016

NOTE:  "FAIR" INDICATES FEW OR NO CLOUDS BELOW 12,000 FEET
WITH NO SIGNIFICANT WEATHER AND/OR OBSTRUCTIONS TO VISIBILITY.

WYZ001-100700-
YELLOWSTONE NATIONAL PARK

CITY           SKY/WX    TMP DP  RH WIND       PRES   REMARKS
LK YELLOWSTONE   N/A     26  23  88 VRB7G20   29.90F WCI  18
6HR MIN TEMP:  24; 6HR MAX TEMP:  26; 6HR PCP:  0.02;

W YELLOWSTONE  NOT AVBL

$$
WYZ002>013-054>058-071-098>099-100700-
NORTHERN WYOMING

CITY           SKY/WX    TMP DP  RH WIND       PRES   REMARKS
JACKSON        CLOUDY    28  28 100 SW8       29.96S WCI  20
CODY           FAIR       6   2  83 CALM      29.93F
GREYBULL       FAIR       9   4  80 SE5       30.01F WCI   1
6HR MIN TEMP:   9; 6HR MAX TEMP:  14;

WORLAND        FAIR       5   2  87 S3        30.00F
6HR MIN TEMP:   5; 6HR MAX TEMP:  12;

SHERIDAN       CLOUDY    10   4  76 N3        30.03F
6HR MIN TEMP:  10; 6HR MAX TEMP:  12; 6HR PCP:  0.01;

BUFFALO        CLOUDY     9   2  73 S9G28     29.97F WCI  -4
6HR MIN TEMP:   6; 6HR MAX TEMP:   9;

GILLETTE       CLOUDY    11   6  81 S12       30.05S WCI  -3
6HR MIN TEMP:   6; 6HR MAX TEMP:  12;

HULETT         CLOUDY     3   0  85 NE3       30.09F
NEWCASTLE      LGT SNOW   5   0  78 S7        30.12F WCI  -7

$$
WYZ014>020-022>026-101>103-100700-
CENTRAL WYOMING

CITY           SKY/WX    TMP DP  RH WIND       PRES   REMARKS
BIG PINEY      CLOUDY    15  13  91 CALM      30.03S
6HR MIN TEMP:   7; 6HR MAX TEMP:  16; 6HR PCP: TRACE;

PINEDALE       CLOUDY    25  23  93 MISG      30.03S
DUBOIS         CLOUDY    30  23  74 NW10      29.90S WCI  21
LANDER         FAIR      10   5  80 VRB5      29.91F WCI   2
6HR MIN TEMP:  10; 6HR MAX TEMP:  17;

RIVERTON       FAIR      11   5  77 W6        29.93F WCI   1
6HR MIN TEMP:  11; 6HR MAX TEMP:  16;

CASPER         FAIR       2  -3  80 N6        29.94F WCI  -9
6HR MIN TEMP:  -1; 6HR MAX TEMP:   7;

DOUGLAS        FAIR      14   9  80 SE8       29.98F WCI   3
6HR MIN TEMP:  10; 6HR MAX TEMP:  17;


$$
WYZ021-027>030-104>119-100700-
SOUTHERN WYOMING

CITY           SKY/WX    TMP DP  RH WIND       PRES   REMARKS
EVANSTON       FAIR      33  22  63 SW14      30.04F WCI  23
6HR MIN TEMP:  31; 6HR MAX TEMP:  36;

KEMMERER         N/A     30  27  86 W10       30.03F WCI  21
FORT BRIDGER   CLEAR     32  25  74 W14       30.04F WCI  22
ROCK SPRINGS   CLOUDY    34  25  69 SW14      30.05S WCI  25
6HR MIN TEMP:  32; 6HR MAX TEMP:  36;

DIXON          CLOUDY    36  24  62 W13       30.14S WCI  27
RAWLINS        MOCLDY    35  21  56 SW18G29   30.02S WCI  24
6HR MIN TEMP:  34; 6HR MAX TEMP:  36; 6HR PCP: TRACE;

SARATOGA       CLOUDY    36  25  64 SW9       30.08S WCI  29
LARAMIE        NOT AVBL
CHEYENNE       FAIR      26  19  74 SW12      30.04F WCI  16
6HR MIN TEMP:  25; 6HR MAX TEMP:  42;

TORRINGTON     MOCLDY    13   6  74 E18G25    30.07F WCI  -4
6HR MIN TEMP:  13; 6HR MAX TEMP:  19;

PINE BLUFFS    CLOUDY    21  18  86 SW8G22    30.08F WCI  12

$$




USA.gov is the U.S. government's official web portal to all federal, state and local government web resources and services.